Time,TemperatureF,DewpointF,PressureIn,WindDirection,WindDirectionDegrees,WindSpeedMPH,WindSpeedGustMPH,Humidity,HourlyPrecipIn,Conditions,Clouds,dailyrainin,SolarRadiationWatts/m^2,SoftwareType,DateUTC
2013-10-08 00:03:00,49.5,46.0,30.17,SSW,211,0.0,0.0,88,0.00,,,0.01,0,weatherlink.com 1.10,2013-10-08 04:03:00,
2013-10-08 00:18:00,49.3,46.0,30.17,SSW,211,0.0,0.0,88,0.00,,,0.01,0,weatherlink.com 1.10,2013-10-08 04:18:00,
2013-10-08 00:33:00,49.3,46.0,30.17,SSW,211,0.0,0.0,88,0.00,,,0.01,0,weatherlink.com 1.10,2013-10-08 04:33:00,
2013-10-08 00:48:00,49.4,46.0,30.18,SSW,211,0.0,0.0,88,0.00,,,0.01,0,weatherlink.com 1.10,2013-10-08 04:48:00,
2013-10-08 01:03:00,49.4,46.0,30.18,WSW,243,0.0,0.0,88,0.00,,,0.01,0,weatherlink.com 1.10,2013-10-08 05:03:00,
2013-10-08 01:18:00,49.4,46.0,30.18,WSW,242,0.0,0.0,88,0.00,,,0.01,0,weatherlink.com 1.10,2013-10-08 05:18:00,
2013-10-08 01:33:00,49.2,46.0,30.18,SW,227,0.0,0.0,88,0.00,,,0.01,0,weatherlink.com 1.10,2013-10-08 05:33:00,
2013-10-08 01:48:00,49.1,46.0,30.18,SW,232,0.0,0.0,88,0.00,,,0.01,0,weatherlink.com 1.10,2013-10-08 05:48:00,
2013-10-08 02:03:00,49.2,46.0,30.18,WSW,242,0.0,0.0,88,0.00,,,0.01,0,weatherlink.com 1.10,2013-10-08 06:03:00,
2013-10-08 02:18:00,49.1,46.0,30.19,WSW,242,0.0,0.0,88,0.00,,,0.01,0,weatherlink.com 1.10,2013-10-08 06:18:00,
2013-10-08 02:33:00,48.9,46.0,30.19,WSW,242,0.0,0.0,88,0.00,,,0.01,0,weatherlink.com 1.10,2013-10-08 06:33:00,
2013-10-08 02:48:00,48.6,45.0,30.19,WSW,242,0.0,0.0,88,0.00,,,0.01,0,weatherlink.com 1.10,2013-10-08 06:48:00,
2013-10-08 03:03:00,48.4,45.0,30.19,WSW,242,0.0,0.0,89,0.00,,,0.01,0,weatherlink.com 1.10,2013-10-08 07:03:00,
2013-10-08 03:18:00,48.3,45.0,30.19,WSW,242,0.0,0.0,89,0.00,,,0.01,0,weatherlink.com 1.10,2013-10-08 07:18:00,
2013-10-08 03:33:00,48.0,45.0,30.19,WSW,242,0.0,0.0,90,0.00,,,0.01,0,weatherlink.com 1.10,2013-10-08 07:33:00,
2013-10-08 03:48:00,47.8,45.0,30.19,WSW,242,0.0,0.0,90,0.00,,,0.01,0,weatherlink.com 1.10,2013-10-08 07:48:00,
2013-10-08 04:03:00,47.8,45.0,30.19,WSW,242,0.0,0.0,91,0.00,,,0.01,0,weatherlink.com 1.10,2013-10-08 08:03:00,
2013-10-08 04:18:00,47.8,45.0,30.19,WSW,242,0.0,0.0,90,0.00,,,0.01,0,weatherlink.com 1.10,2013-10-08 08:18:00,
2013-10-08 04:33:00,47.5,45.0,30.19,WSW,242,0.0,0.0,90,0.00,,,0.00,0,weatherlink.com 1.10,2013-10-08 08:33:00,
2013-10-08 04:48:00,47.4,45.0,30.20,WSW,242,0.0,0.0,90,0.00,,,0.00,0,weatherlink.com 1.10,2013-10-08 08:48:00,
2013-10-08 05:03:00,47.2,45.0,30.20,WSW,242,0.0,0.0,91,0.00,,,0.00,0,weatherlink.com 1.10,2013-10-08 09:03:00,
2013-10-08 05:18:00,47.0,45.0,30.20,WSW,242,0.0,0.0,91,0.00,,,0.00,0,weatherlink.com 1.10,2013-10-08 09:18:00,
2013-10-08 05:33:00,46.9,45.0,30.20,WSW,242,0.0,0.0,91,0.00,,,0.00,0,weatherlink.com 1.10,2013-10-08 09:33:00,
2013-10-08 05:48:00,46.9,45.0,30.21,WSW,242,0.0,0.0,92,0.00,,,0.00,0,weatherlink.com 1.10,2013-10-08 09:48:00,
2013-10-08 06:03:00,46.5,44.0,30.21,WSW,242,0.0,0.0,91,0.00,,,0.00,0,weatherlink.com 1.10,2013-10-08 10:03:00,
2013-10-08 06:18:00,46.3,44.0,30.21,WSW,242,0.0,0.0,92,0.00,,,0.00,0,weatherlink.com 1.10,2013-10-08 10:18:00,
2013-10-08 06:33:00,46.2,44.0,30.21,WSW,242,0.0,0.0,92,0.00,,,0.00,0,weatherlink.com 1.10,2013-10-08 10:33:00,
2013-10-08 06:48:00,46.0,44.0,30.21,WSW,242,0.0,0.0,92,0.00,,,0.00,0,weatherlink.com 1.10,2013-10-08 10:48:00,
2013-10-08 07:03:00,45.5,43.0,30.21,WSW,242,0.0,0.0,92,0.00,,,0.00,0,weatherlink.com 1.10,2013-10-08 11:03:00,
2013-10-08 07:18:00,45.1,43.0,30.22,WSW,242,0.0,0.0,92,0.00,,,0.00,0,weatherlink.com 1.10,2013-10-08 11:18:00,
2013-10-08 07:33:00,45.1,43.0,30.22,WSW,242,0.0,0.0,93,0.00,,,0.00,0,weatherlink.com 1.10,2013-10-08 11:33:00,
2013-10-08 07:48:00,44.8,43.0,30.23,WSW,242,0.0,0.0,93,0.00,,,0.00,0,weatherlink.com 1.10,2013-10-08 11:48:00,
2013-10-08 08:03:00,44.6,43.0,30.23,WSW,242,0.0,0.0,93,0.00,,,0.00,9,weatherlink.com 1.10,2013-10-08 12:03:00,
2013-10-08 08:18:00,44.7,43.0,30.23,WSW,242,0.0,0.0,93,0.00,,,0.00,14,weatherlink.com 1.10,2013-10-08 12:18:00,
2013-10-08 08:34:00,45.0,43.0,30.24,WSW,242,0.0,0.0,94,0.00,,,0.00,19,weatherlink.com 1.10,2013-10-08 12:34:00,
2013-10-08 08:49:00,45.8,44.0,30.25,WSW,242,0.0,0.0,94,0.00,,,0.00,23,weatherlink.com 1.10,2013-10-08 12:49:00,
2013-10-08 09:04:00,46.5,45.0,30.25,WSW,242,0.0,0.0,94,0.00,,,0.00,26,weatherlink.com 1.10,2013-10-08 13:04:00,
2013-10-08 09:19:00,47.4,46.0,30.25,WSW,247,0.0,0.0,95,0.00,,,0.00,30,weatherlink.com 1.10,2013-10-08 13:19:00,
2013-10-08 09:34:00,49.3,48.0,30.26,WSW,247,0.0,0.0,95,0.00,,,0.00,294,weatherlink.com 1.10,2013-10-08 13:34:00,
2013-10-08 09:49:00,51.5,50.0,30.25,WSW,247,0.0,0.0,95,0.00,,,0.00,339,weatherlink.com 1.10,2013-10-08 13:49:00,
2013-10-08 10:04:00,54.3,53.0,30.26,WSW,247,0.0,0.0,95,0.00,,,0.00,388,weatherlink.com 1.10,2013-10-08 14:04:00,
2013-10-08 10:19:00,57.4,53.0,30.26,WNW,297,0.0,0.0,85,0.00,,,0.00,436,weatherlink.com 1.10,2013-10-08 14:19:00,
2013-10-08 10:34:00,59.8,53.0,30.26,WSW,258,0.0,0.0,77,0.00,,,0.00,496,weatherlink.com 1.10,2013-10-08 14:34:00,
2013-10-08 10:49:00,61.2,54.0,30.26,West,261,0.0,0.0,78,0.00,,,0.00,541,weatherlink.com 1.10,2013-10-08 14:49:00,
2013-10-08 11:04:00,62.6,55.0,30.26,West,261,0.0,0.0,76,0.00,,,0.00,585,weatherlink.com 1.10,2013-10-08 15:04:00,
2013-10-08 11:19:00,63.6,53.0,30.26,NW,311,0.0,0.0,68,0.00,,,0.00,624,weatherlink.com 1.10,2013-10-08 15:19:00,
2013-10-08 11:34:00,64.2,54.0,30.26,NW,317,0.0,0.0,69,0.00,,,0.00,661,weatherlink.com 1.10,2013-10-08 15:34:00,
2013-10-08 11:49:00,64.9,54.0,30.26,WSW,256,0.0,0.0,69,0.00,,,0.00,693,weatherlink.com 1.10,2013-10-08 15:49:00,
2013-10-08 12:04:00,65.3,51.0,30.26,West,263,0.0,0.0,61,0.00,,,0.00,719,weatherlink.com 1.10,2013-10-08 16:04:00,
2013-10-08 12:19:00,65.6,53.0,30.25,North,5,0.0,0.0,64,0.00,,,0.00,742,weatherlink.com 1.10,2013-10-08 16:19:00,
2013-10-08 12:35:00,66.1,53.0,30.25,NNW,340,0.0,0.0,63,0.00,,,0.00,763,weatherlink.com 1.10,2013-10-08 16:35:00,
2013-10-08 12:50:00,66.7,53.0,30.25,NNE,19,0.0,0.0,62,0.00,,,0.00,777,weatherlink.com 1.10,2013-10-08 16:50:00,
2013-10-08 13:05:00,67.2,54.0,30.25,East,80,0.0,0.0,63,0.00,,,0.00,788,weatherlink.com 1.10,2013-10-08 17:05:00,
2013-10-08 13:20:00,67.6,53.0,30.24,South,188,0.0,0.0,59,0.00,,,0.00,796,weatherlink.com 1.10,2013-10-08 17:20:00,
2013-10-08 13:35:00,68.1,52.0,30.23,NE,50,0.0,0.0,57,0.00,,,0.00,800,weatherlink.com 1.10,2013-10-08 17:35:00,
2013-10-08 13:50:00,68.0,53.0,30.23,NE,44,0.0,0.0,59,0.00,,,0.00,795,weatherlink.com 1.10,2013-10-08 17:50:00,
2013-10-08 14:05:00,68.0,54.0,30.22,SE,141,0.0,0.0,62,0.00,,,0.00,789,weatherlink.com 1.10,2013-10-08 18:05:00,
2013-10-08 14:20:00,68.3,55.0,30.22,NNE,17,0.0,0.0,62,0.00,,,0.00,779,weatherlink.com 1.10,2013-10-08 18:20:00,
2013-10-08 14:35:00,68.3,52.0,30.21,NNE,13,0.0,0.0,57,0.00,,,0.00,763,weatherlink.com 1.10,2013-10-08 18:35:00,
2013-10-08 14:50:00,69.0,52.0,30.21,WNW,298,0.0,0.0,55,0.00,,,0.00,744,weatherlink.com 1.10,2013-10-08 18:50:00,
2013-10-08 15:05:00,68.6,52.0,30.20,NE,40,0.0,0.0,56,0.00,,,0.00,721,weatherlink.com 1.10,2013-10-08 19:05:00,
2013-10-08 15:20:00,69.1,54.0,30.20,NNE,23,0.0,0.0,58,0.00,,,0.00,696,weatherlink.com 1.10,2013-10-08 19:20:00,
2013-10-08 15:35:00,69.8,54.0,30.19,West,263,0.0,0.0,57,0.00,,,0.00,664,weatherlink.com 1.10,2013-10-08 19:35:00,
2013-10-08 15:50:00,69.7,53.0,30.19,SW,236,0.0,0.0,56,0.00,,,0.00,633,weatherlink.com 1.10,2013-10-08 19:50:00,
2013-10-08 16:05:00,70.0,55.0,30.19,NW,326,0.0,0.0,59,0.00,,,0.00,598,weatherlink.com 1.10,2013-10-08 20:05:00,
2013-10-08 16:20:00,69.8,54.0,30.19,North,355,0.0,0.0,58,0.00,,,0.00,559,weatherlink.com 1.10,2013-10-08 20:20:00,
2013-10-08 16:35:00,69.9,52.0,30.19,SSE,153,0.0,0.0,53,0.00,,,0.00,517,weatherlink.com 1.10,2013-10-08 20:35:00,
2013-10-08 16:51:00,69.9,53.0,30.19,SW,223,0.0,0.0,55,0.00,,,0.00,469,weatherlink.com 1.10,2013-10-08 20:51:00,
2013-10-08 17:05:00,69.8,51.0,30.18,WNW,286,0.0,0.0,52,0.00,,,0.00,424,weatherlink.com 1.10,2013-10-08 21:05:00,
2013-10-08 17:20:00,69.7,53.0,30.19,WSW,238,0.0,0.0,56,0.00,,,0.00,367,weatherlink.com 1.10,2013-10-08 21:20:00,
2013-10-08 17:35:00,69.3,51.0,30.18,ENE,78,0.0,0.0,53,0.00,,,0.00,316,weatherlink.com 1.10,2013-10-08 21:35:00,
2013-10-08 17:50:00,68.9,52.0,30.19,NNW,336,0.0,0.0,55,0.00,,,0.00,264,weatherlink.com 1.10,2013-10-08 21:50:00,
2013-10-08 18:05:00,67.9,50.0,30.18,NNW,337,0.0,0.0,54,0.00,,,0.00,200,weatherlink.com 1.10,2013-10-08 22:05:00,
2013-10-08 18:20:00,67.6,53.0,30.18,NNW,337,0.0,0.0,59,0.00,,,0.00,139,weatherlink.com 1.10,2013-10-08 22:20:00,
2013-10-08 18:35:00,66.8,51.0,30.18,NNW,337,0.0,0.0,57,0.00,,,0.00,81,weatherlink.com 1.10,2013-10-08 22:35:00,
2013-10-08 18:50:00,65.3,50.0,30.18,NNW,337,0.0,0.0,59,0.00,,,0.00,19,weatherlink.com 1.10,2013-10-08 22:50:00,
2013-10-08 19:05:00,63.0,50.0,30.18,NNW,337,0.0,0.0,63,0.00,,,0.00,11,weatherlink.com 1.10,2013-10-08 23:05:00,
2013-10-08 19:20:00,61.0,49.0,30.18,NNW,337,0.0,0.0,66,0.00,,,0.00,0,weatherlink.com 1.10,2013-10-08 23:20:00,
2013-10-08 19:35:00,59.0,49.0,30.18,NNW,337,0.0,0.0,69,0.00,,,0.00,0,weatherlink.com 1.10,2013-10-08 23:35:00,
2013-10-08 19:50:00,57.3,49.0,30.18,NNW,337,0.0,0.0,74,0.00,,,0.00,0,weatherlink.com 1.10,2013-10-08 23:50:00,
2013-10-08 20:05:00,55.8,49.0,30.18,NNW,337,0.0,0.0,79,0.00,,,0.00,0,weatherlink.com 1.10,2013-10-09 00:05:00,
2013-10-08 20:20:00,54.4,49.0,30.18,NNW,337,0.0,0.0,83,0.00,,,0.00,0,weatherlink.com 1.10,2013-10-09 00:20:00,
2013-10-08 20:35:00,53.3,48.0,30.19,NNW,337,0.0,0.0,83,0.00,,,0.00,0,weatherlink.com 1.10,2013-10-09 00:35:00,
2013-10-08 20:50:00,52.5,48.0,30.19,NNW,337,0.0,0.0,85,0.00,,,0.00,0,weatherlink.com 1.10,2013-10-09 00:50:00,
2013-10-08 21:05:00,51.9,48.0,30.19,NNW,337,0.0,0.0,87,0.00,,,0.00,0,weatherlink.com 1.10,2013-10-09 01:05:00,
2013-10-08 21:20:00,51.4,48.0,30.20,NNW,337,0.0,0.0,88,0.00,,,0.00,0,weatherlink.com 1.10,2013-10-09 01:20:00,
2013-10-08 21:35:00,50.9,48.0,30.20,NNW,337,0.0,0.0,88,0.00,,,0.00,0,weatherlink.com 1.10,2013-10-09 01:35:00,
2013-10-08 21:50:00,50.7,48.0,30.20,NNW,337,0.0,0.0,89,0.00,,,0.00,0,weatherlink.com 1.10,2013-10-09 01:50:00,
2013-10-08 22:05:00,50.8,47.0,30.20,NNW,337,0.0,0.0,88,0.00,,,0.00,0,weatherlink.com 1.10,2013-10-09 02:05:00,
2013-10-08 22:20:00,51.0,47.0,30.20,NNW,337,0.0,0.0,86,0.00,,,0.00,0,weatherlink.com 1.10,2013-10-09 02:20:00,
2013-10-08 22:35:00,50.9,47.0,30.20,NNW,337,0.0,0.0,85,0.00,,,0.00,0,weatherlink.com 1.10,2013-10-09 02:35:00,
2013-10-08 22:50:00,50.8,47.0,30.20,NNW,337,0.0,0.0,86,0.00,,,0.00,0,weatherlink.com 1.10,2013-10-09 02:50:00,
2013-10-08 23:05:00,50.4,46.0,30.20,NNW,337,0.0,0.0,85,0.00,,,0.00,0,weatherlink.com 1.10,2013-10-09 03:05:00,
2013-10-08 23:20:00,50.1,46.0,30.20,NNW,337,0.0,0.0,86,0.00,,,0.00,0,weatherlink.com 1.10,2013-10-09 03:20:00,
2013-10-08 23:35:00,49.7,46.0,30.20,NNW,337,0.0,0.0,87,0.00,,,0.00,0,weatherlink.com 1.10,2013-10-09 03:35:00,
2013-10-08 23:50:00,49.4,46.0,30.20,NNW,337,0.0,0.0,88,0.00,,,0.00,0,weatherlink.com 1.10,2013-10-09 03:50:00,